This is the latest recevied weather packets stored in our database for station/object IR4UCA-3. If no packets are shown the sender has not sent any weather packets the latest 10 day(s).
| Time | Temp. | Humidity | Pressure | Rain* | Wind** | Luminosity | Snow |
|---|---|---|---|---|---|---|---|
| 1778064431 | 19.44° C | 77% | 1008.7 hPa | 0 mm | - | - | - |
| 1778064324 | 19.44° C | 77% | 1008.9 hPa | 0 mm | - | - | - |
| 1778064190 | 19.44° C | 78% | 1008.9 hPa | 0 mm | - | - | - |
| 1778064071 | 19.44° C | 82% | 1008.8 hPa | 0 mm | - | - | - |
| 1778063950 | 19.44° C | 85% | 1008.8 hPa | 0 mm | - | - | - |
| 1778063830 | 18.89° C | 86% | 1008.9 hPa | 0 mm | - | - | - |
| 1778063728 | 18.89° C | 86% | 1008.8 hPa | 0 mm | - | - | - |
| 1778063591 | 18.89° C | 86% | 1008.8 hPa | 0 mm | - | - | - |
| 1778063472 | 18.89° C | 86% | 1008.8 hPa | 0 mm | - | - | - |
| 1778063349 | 18.89° C | 87% | 1008.8 hPa | 0 mm | - | - | - |
| 1778063230 | 18.89° C | 88% | 1008.7 hPa | 0 mm | - | - | - |
| 1778063117 | 18.89° C | 88% | 1008.8 hPa | 0 mm | - | - | - |
| 1778062990 | 18.89° C | 88% | 1008.8 hPa | 0 mm | - | - | - |
| 1778062872 | 18.89° C | 88% | 1009 hPa | 0 mm | - | - | - |
| 1778062752 | 18.89° C | 88% | 1008.9 hPa | 0 mm | - | - | - |
| 1778062631 | 18.89° C | 88% | 1008.9 hPa | 0 mm | - | - | - |
| 1778062523 | 18.33° C | 88% | 1008.8 hPa | 0 mm | - | - | - |
| 1778062398 | 18.33° C | 89% | 1009 hPa | 0 mm | - | - | - |
| 1778062272 | 18.33° C | 89% | 1008.9 hPa | 0 mm | - | - | - |
| 1778062150 | 18.33° C | 89% | 1008.9 hPa | 0 mm | - | - | - |
| 1778062030 | 18.33° C | 90% | 1009 hPa | 0 mm | - | - | - |
| 1778061919 | 18.33° C | 90% | 1008.9 hPa | 0 mm | - | - | - |
| 1778061792 | 18.33° C | 90% | 1009 hPa | 0 mm | - | - | - |
| 1778061673 | 17.78° C | 92% | 1009 hPa | 0 mm | - | - | - |
| 1778061551 | 17.78° C | 90% | 1009 hPa | 0 mm | - | - | - |
* Rain latest hour (hover to see other rain measurements)
** Current wind speed in m/s (hover to see current wind gust speed)